[[{"header":{"parameterUnit":"m.s-1","parameterCategory":1,"la1":30.2991,"la2":30.254,"lo1":-89.0895,"lo2":-89.0444,"dy":0.0017,"dx":0.0017,"nx":28,"ny":28,"refTime":"2024-02-11T09:00:00:Z","depth":0,"parameterNumber":2,"parameterNumberName":"U-component_of_WINDS"},"data":[0,0,0,0,0,0,0,0,0,0,0,0,0,0,0,0,0,0,0,0,0,0,0,0,0,0,0,0,0,0,0,0,0,0,0,0,0,0,0,0,0,0,0,0,0,0,0,0,0,0,0,0,0,0,0,0,0,0,8.9671,8.9672,0,8.982,8.9822,8.9824,8.9664,8.9658,8.9651,8.9646,8.9793,8.9803,8.9812,0,0,0,0,0,0,0,0,0,0,0,0,0,8.9243,8.9252,8.967,8.9672,8.9674,8.982,8.9822,8.9824,8.9665,8.9657,8.965,8.9643,8.979,8.9802,8.9813,0,0,0,0,0,0,0,0,0,0,0,0,0,8.9415,8.9255,8.967,8.9612,8.9609,8.982,8.9822,8.9825,8.9666,8.9657,8.9648,8.9639,8.9786,8.9801,8.9815,9.0088,0,0,8.9859,8.9865,0,0,0,0,0,0,0,0,8.9405,8.943,8.9619,8.9617,8.9613,8.9714,8.9726,8.9913,8.9669,8.9644,8.9645,8.9635,8.9774,8.9789,8.9837,9.0095,9.0102,8.986,8.9869,8.9875,8.9879,0,0,0,0,0,0,0,8.9394,8.9423,8.9729,8.9622,8.9618,8.9578,8.9592,8.976,8.9759,8.9646,8.9635,8.9655,8.9771,8.9824,8.9839,9.0104,8.986,8.9873,8.9882,8.9887,9.0599,9.0609,0,0,0,0,0,0,8.9389,8.9414,8.9725,8.9734,8.9485,8.9593,8.9609,8.9691,8.9757,8.9758,8.9662,8.9647,8.9803,8.9823,8.9844,9.0174,8.9875,8.9889,8.9897,9.0589,9.0601,9.0612,0,0,0,0,0,0,8.938,8.9418,8.9719,8.9571,8.9607,8.9611,8.9704,8.9699,8.9752,8.9769,8.9768,8.9717,8.9797,8.9824,9.0031,9.0176,8.9895,8.9908,9.0577,9.0593,9.0607,9.0832,0,0,0,0,0,0,8.9369,8.9416,8.952,8.9575,8.9615,8.9905,8.9712,8.9708,8.9778,8.9759,8.982,8.9822,8.9792,9.001,9.0045,9.0191,8.992,9.0564,9.0584,9.0602,9.0812,9.0853,9.0889,0,0,0,0,0,8.9354,8.9575,8.9527,8.9565,8.9746,8.9913,8.9936,8.9899,8.979,8.9896,8.9907,8.982,9.0154,9.0032,9.007,9.0223,9.0555,9.0578,9.0601,9.0795,9.0845,9.0888,0,0,0,0,0,0,8.9534,8.9581,8.9528,8.9773,8.9841,8.9886,9.0017,8.9953,9.0051,9.0029,8.9976,8.9991,9.0213,9.0237,9.0101,9.0494,9.0336,9.0368,9.0471,9.0519,9.0557,9.0548,8.9932,0,0,0,0,0,8.9603,8.9737,8.9769,8.9983,9.002,9.0014,9.0085,9.0051,9.0118,9.0145,9.0171,9.0239,9.0359,9.0439,9.055,9.0813,9.0826,9.0937,9.0975,9.1007,9.1037,9.1182,9.1233,9.0688,9.0688,9.0687,0,0,8.9746,8.9788,8.9875,9.0021,9.0069,9.0209,9.0038,9.0191,9.0295,9.0167,9.0367,9.0389,9.046,9.0698,9.0804,9.0725,9.119,9.1036,9.1061,9.1074,9.1211,9.1263,9.1309,9.0704,9.0701,9.0698,0,0,9.0079,9.0123,9.0309,9.0362,9.0439,9.0434,9.0478,9.0534,9.0546,9.0745,9.0654,9.0774,9.0981,9.1038,9.1094,9.1453,9.1378,9.149,9.1693,9.1836,9.1879,9.1917,9.205,9.2097,9.1518,9.1519,9.1519,0,9.0247,9.0455,9.0411,9.0575,9.0643,9.0536,9.0725,9.0777,9.0886,9.0936,9.0846,9.1108,9.1148,9.14,9.1489,9.1535,9.1587,9.1485,9.1876,9.1914,9.1949,9.2075,9.2125,9.1532,9.1531,9.1529,9.1528,0,9.066,9.0806,9.0946,9.1059,9.1142,9.1317,9.13,9.1389,9.1349,9.1353,9.156,9.1604,9.1725,9.1781,9.174,9.203,9.198,9.1884,9.1726,9.2015,9.2133,9.2181,9.1552,9.1547,9.1543,9.1539,0,0,9.1112,9.1201,9.1254,9.1306,9.1384,9.1496,9.1666,9.1788,9.1868,9.1945,9.2089,9.2269,9.2183,9.2246,9.2211,9.2336,9.2624,9.2225,9.2226,9.2303,9.2951,9.3027,9.3083,9.2573,9.2582,9.2589,9.2947,0,9.1451,9.175,9.1718,9.2003,9.214,9.2042,9.2191,9.2255,9.2264,9.238,9.2388,9.2519,9.2393,9.2432,9.255,9.2564,9.2755,9.2537,9.2708,9.2715,9.2699,9.3144,9.3223,9.3559,9.2992,9.3,9.3005,0,9.1887,9.1987,9.2287,9.235,9.2406,9.2541,9.2652,9.2764,9.2835,9.2833,9.2907,9.2851,9.3022,9.2858,9.3095,9.2949,9.3016,9.3033,9.3045,9.3064,9.2881,9.3179,9.3664,9.3717,9.3077,9.3071,9.3066,0,9.2194,9.2402,9.261,9.2657,9.2733,9.2831,9.2867,9.293,9.3007,9.3102,9.3152,9.3266,9.3329,9.3418,9.3395,9.3276,9.364,9.3471,9.3645,9.3646,9.3729,9.3725,9.4237,9.3764,9.3764,9.3763,9.3762,0,9.258,9.2769,9.275,9.2879,9.3088,9.3049,9.3257,9.3279,9.3337,9.3468,9.3387,9.3512,9.3471,9.3594,9.3575,9.3778,9.3805,9.381,9.3804,9.382,9.3821,9.3867,9.3845,9.3776,9.3773,9.377,9.3768,0,9.2959,9.2954,9.3176,9.3232,9.325,9.3403,9.345,9.3571,9.3574,9.3742,9.3779,9.3784,9.3924,9.3909,9.4064,9.4052,9.4306,9.4268,9.4284,9.4277,9.4454,9.444,9.5017,9.5093,9.4567,9.4572,9.4576,0,9.3208,9.3352,9.3425,9.351,9.3554,9.3689,9.3769,9.3735,9.3821,9.3916,9.4027,9.416,9.4266,9.4496,9.4512,9.4632,9.46,9.4795,9.4618,9.4632,9.461,9.4604,9.4621,9.4831,9.4837,9.4842,9.4846,0,9.3653,9.3644,9.3763,9.3884,9.3982,9.4074,9.4157,9.423,9.4205,9.4305,9.4451,9.4533,9.4695,9.483,9.4945,9.4979,9.4911,9.4901,9.4948,9.497,9.4975,9.498,9.4385,9.4889,9.4884,9.4881,9.4879,9.4877,9.3978,9.4104,9.4177,9.4314,9.4374,9.4455,9.4574,9.4594,9.4715,9.4848,9.4819,9.4984,9.5053,9.52,9.5248,9.5375,9.5305,9.5372,9.539,9.5409,9.5432,9.4951,9.5395,9.5394,9.5392,9.5391,9.539,0,9.4423,9.4467,9.4593,9.4715,9.4824,9.475,9.4839,9.4935,9.5082,9.5154,9.5262,9.5431,9.5562,9.5591,9.5716,9.5814,9.5786,9.5848,9.5843,9.5854,9.5485,9.5435,9.587,9.587,9.5869,9.5869,9.5869,9.5869,9.4668,9.488,9.4881,9.5121,9.5161,9.5326,9.5384,9.5459,9.5517,9.5711,9.5822,9.584,9.5895,9.6025,9.6143,9.6148,9.62,9.6277,9.627,9.5926,9.5879,9.5833,9.5786,9.6287,9.6288,9.6628,9.6632,9.6634]},{"header":{"parameterUnit":"m.s-1","parameterCategory":1,"la1":30.2991,"la2":30.254,"lo1":-89.0895,"lo2":-89.0444,"dy":0.0017,"dx":0.0017,"nx":28,"ny":28,"refTime":"2024-02-11T09:00:00:Z","depth":0,"parameterNumber":3,"parameterNumberName":"V-component_of_WINDS"},"data":[0,0,0,0,0,0,0,0,0,0,0,0,0,0,0,0,0,0,0,0,0,0,0,0,0,0,0,0,0,0,0,0,0,0,0,0,0,0,0,0,0,0,0,0,0,0,0,0,0,0,0,0,0,0,0,0,0,0,-0.0564,-0.0563,0,-0.0473,-0.0472,-0.0471,-0.0463,-0.0464,-0.0465,-0.0466,-0.0353,-0.0349,-0.0345,0,0,0,0,0,0,0,0,0,0,0,0,0,-0.0716,-0.0714,-0.0564,-0.0563,-0.0562,-0.0473,-0.0472,-0.0471,-0.0463,-0.0464,-0.0465,-0.0466,-0.0354,-0.035,-0.0345,0,0,0,0,0,0,0,0,0,0,0,0,0,-0.064,-0.0713,-0.0564,-0.0548,-0.0545,-0.0474,-0.0472,-0.047,-0.0462,-0.0464,-0.0466,-0.0467,-0.0356,-0.035,-0.0344,-0.0277,0,0,-0.0326,-0.0323,0,0,0,0,0,0,0,0,-0.0644,-0.0634,-0.0551,-0.0549,-0.0546,-0.0481,-0.0484,-0.0405,-0.0462,-0.0493,-0.0466,-0.0468,-0.0393,-0.0384,-0.0363,-0.0271,-0.0267,-0.0326,-0.0322,-0.0319,-0.0318,0,0,0,0,0,0,0,-0.0649,-0.0638,-0.0527,-0.055,-0.0547,-0.054,-0.0531,-0.0469,-0.0435,-0.0491,-0.049,-0.048,-0.0392,-0.0369,-0.036,-0.0265,-0.0326,-0.032,-0.0317,-0.0314,-0.0116,-0.0114,0,0,0,0,0,0,-0.066,-0.0642,-0.053,-0.0525,-0.0601,-0.0536,-0.0526,-0.05,-0.0436,-0.0428,-0.0479,-0.048,-0.0378,-0.0367,-0.0356,-0.0276,-0.0319,-0.0314,-0.031,-0.0118,-0.0115,-0.0114,0,0,0,0,0,0,-0.0664,-0.065,-0.0534,-0.0584,-0.0568,-0.0532,-0.0503,-0.0498,-0.0475,-0.0428,-0.0419,-0.0463,-0.0379,-0.0365,-0.0299,-0.0271,-0.0311,-0.0306,-0.012,-0.0117,-0.0115,-0.0112,0,0,0,0,0,0,-0.0668,-0.0652,-0.0629,-0.0583,-0.0566,-0.0483,-0.0501,-0.0495,-0.0467,-0.0468,-0.041,-0.0402,-0.0379,-0.0308,-0.0293,-0.0264,-0.0301,-0.0122,-0.0118,-0.0115,-0.0114,-0.0109,-0.0106,0,0,0,0,0,-0.0673,-0.0627,-0.0628,-0.0614,-0.0538,-0.0481,-0.047,-0.0451,-0.0465,-0.044,-0.041,-0.0404,-0.0277,-0.0301,-0.0284,-0.0253,-0.0123,-0.0119,-0.0116,-0.0116,-0.011,-0.0106,0,0,0,0,0,0,-0.0662,-0.062,-0.0621,-0.0559,-0.0525,-0.048,-0.0448,-0.0445,-0.04,-0.0402,-0.0374,-0.0361,-0.0296,-0.0267,-0.0295,-0.0186,-0.0201,-0.0194,-0.0207,-0.0201,-0.0197,-0.0205,-0.0296,0,0,0,0,0,-0.0654,-0.0617,-0.058,-0.0529,-0.0512,-0.0484,-0.0458,-0.0447,-0.0407,-0.039,-0.0355,-0.0312,-0.0263,-0.023,-0.0182,-0.0111,-0.0097,-0.0081,-0.0076,-0.0073,-0.0066,-0.0029,-0.0021,-0.0101,-0.0101,-0.0101,0,0,-0.0633,-0.0606,-0.0583,-0.0526,-0.0498,-0.0457,-0.047,-0.0424,-0.0392,-0.0381,-0.0319,-0.0292,-0.0242,-0.0174,-0.0142,-0.0148,-0.0042,-0.0068,-0.0066,-0.0061,-0.0024,-0.0016,-0.001,-0.0098,-0.0099,-0.0099,0,0,-0.0576,-0.0552,-0.0509,-0.0483,-0.0443,-0.0425,-0.0415,-0.0371,-0.0355,-0.0295,-0.0286,-0.0244,-0.016,-0.0126,-0.0097,-0.0033,-0.0025,-0.0017,0.0007,0.0043,0.0049,0.0055,0.0077,0.0085,-0.0011,-0.0011,-0.0011,0,-0.0554,-0.0497,-0.0485,-0.0442,-0.0417,-0.0413,-0.0367,-0.0339,-0.0283,-0.0264,-0.0273,-0.0171,-0.0136,-0.0062,-0.0047,-0.0024,-0.0009,-0.0023,0.0046,0.0052,0.0058,0.008,0.0088,-0.001,-0.001,-0.001,-0.001,0,-0.0472,-0.0433,-0.0401,-0.0356,-0.0327,-0.0282,-0.026,-0.0231,-0.0224,-0.0204,-0.0141,-0.0101,-0.0047,-0.0028,-0.0016,0.0048,0.0042,0.0039,0.0025,0.0066,0.0086,0.0095,-0.0009,-0.0009,-0.001,-0.001,0,0,-0.0402,-0.0356,-0.0344,-0.0325,-0.0283,-0.025,-0.0204,-0.0158,-0.0135,-0.0096,-0.0056,0.0012,0.0007,0.004,0.0055,0.0087,0.0133,0.008,0.0082,0.0088,0.0206,0.0207,0.0216,0.0137,0.0139,0.014,0.0201,0,-0.034,-0.0267,-0.0257,-0.0189,-0.0152,-0.015,-0.011,-0.0078,-0.0059,-0.0021,0.0004,0.005,0.0041,0.006,0.0092,0.0121,0.0158,0.0117,0.0179,0.0181,0.0165,0.0227,0.0231,0.0286,0.0209,0.0211,0.0212,0,-0.0258,-0.0227,-0.0158,-0.0126,-0.0109,-0.0075,-0.0034,0.0001,0.0039,0.0051,0.0083,0.0093,0.0143,0.0124,0.0195,0.0167,0.0193,0.0211,0.0214,0.0221,0.0199,0.0237,0.0304,0.0312,0.0225,0.0224,0.0223,0,-0.0216,-0.0155,-0.0108,-0.0091,-0.0051,-0.0027,-0.0008,0.0027,0.0053,0.0091,0.0108,0.0154,0.018,0.0217,0.024,0.0224,0.0309,0.0293,0.0323,0.0322,0.0342,0.0341,0.0414,0.0359,0.0358,0.0358,0.0358,0,-0.0148,-0.0106,-0.0089,-0.0059,-0.0012,0.0001,0.0049,0.0068,0.0098,0.0134,0.0142,0.0177,0.0205,0.0245,0.0264,0.0319,0.0331,0.0345,0.0349,0.0344,0.0342,0.0362,0.0359,0.0361,0.036,0.036,0.0359,0,-0.0092,-0.0079,-0.0027,0.0004,0.0013,0.0046,0.0075,0.0106,0.0122,0.0168,0.018,0.0209,0.0256,0.0281,0.0343,0.0355,0.0416,0.042,0.0401,0.0404,0.0432,0.0428,0.0521,0.0534,0.047,0.047,0.0471,0,-0.005,-0.0019,0.0012,0.0033,0.005,0.0086,0.011,0.0124,0.015,0.0191,0.0217,0.0262,0.0299,0.0374,0.0404,0.045,0.0454,0.0483,0.0462,0.0454,0.0454,0.0451,0.0454,0.0488,0.0489,0.0489,0.049,0,0.0023,0.0026,0.0057,0.009,0.0116,0.0144,0.0173,0.0191,0.021,0.0239,0.0282,0.031,0.0368,0.0413,0.046,0.0485,0.0492,0.0495,0.0504,0.0499,0.0487,0.0493,0.0411,0.0494,0.0493,0.0493,0.0493,0.0493,0.0073,0.0099,0.0123,0.0158,0.0178,0.0203,0.0232,0.0249,0.0284,0.0327,0.0334,0.038,0.0416,0.0478,0.0503,0.0542,0.0537,0.0552,0.0555,0.0558,0.0558,0.0479,0.0552,0.0552,0.0552,0.0551,0.0551,0,0.0145,0.0159,0.019,0.0225,0.0252,0.0247,0.0277,0.0302,0.034,0.0369,0.0402,0.0451,0.0494,0.0525,0.0569,0.0594,0.0598,0.0606,0.0604,0.061,0.0561,0.0548,0.0601,0.0601,0.0601,0.0601,0.0601,0.0601,0.0185,0.0228,0.0234,0.0288,0.0304,0.0344,0.0361,0.0385,0.0407,0.0459,0.0492,0.0509,0.0539,0.0585,0.0624,0.0633,0.0649,0.0656,0.0665,0.0619,0.0614,0.0609,0.0596,0.0659,0.0659,0.071,0.071,0.0711]}]]